Location: *
(6.0000°S, 32.3997°W)
Time: 19:50:40
(UTC+00:00)

CZ-2C R/B - Pass Details

Date: 01 April 2020
Orbit: 785 x 870 km, 98.3° (Epoch: 28 May)

Event Time Altitude Azimuth Distance (km) Brightness Sun altitude
Exits shadow 22:11:24 33° 195° (SSW) 1,322 3.7 -29.8°
Drops below altitude 10° 22:14:18 10° 193° (SSW) 2,409 5.2 -30.6°
Sets 22:16:40 0° 193° (SSW) 3,358 5.9 -31.2°
